iso_date,epoch_date,Year,Hour,Min,DOY,POS_DOY,Lat,Lon,BP,Ts,Ta,has_bp,has_ts,has_ta,BuoyID,Buoy_Type,Buoy_Owner,Logistics,Hemisphere
2013-05-09T00:00:00Z,1368057600,2013,0,0,129.0,-999.0,-66.1108,-135.3076,970.1,-1.2,-999.0,yes,yes,no,300234011342110,UPTEMPO,PSC-UPTEMPO,Palmer,South
2013-05-09T01:00:28Z,1368061229,2013,1,0,129.042,-999.0,-66.1108,-135.3076,968.6,-1.2,-999.0,yes,yes,no,300234011342110,UPTEMPO,PSC-UPTEMPO,Palmer,South
2013-05-09T01:59:31Z,1368064771,2013,2,0,129.083,-999.0,-66.1154,-135.3206,968.0,-1.18,-999.0,yes,yes,no,300234011342110,UPTEMPO,PSC-UPTEMPO,Palmer,South
2013-05-09T03:00:00Z,1368068400,2013,3,0,129.125,-999.0,-66.117,-135.3248,967.2,-1.18,-999.0,yes,yes,no,300234011342110,UPTEMPO,PSC-UPTEMPO,Palmer,South
2013-05-09T04:00:28Z,1368072029,2013,4,0,129.167,-999.0,-66.117,-135.3248,966.3,-1.16,-999.0,yes,yes,no,300234011342110,UPTEMPO,PSC-UPTEMPO,Palmer,South
2013-05-09T04:59:31Z,1368075571,2013,5,0,129.208,-999.0,-66.117,-135.3248,964.9,-1.16,-999.0,yes,yes,no,300234011342110,UPTEMPO,PSC-UPTEMPO,Palmer,South
2013-05-09T06:00:00Z,1368079200,2013,6,0,129.25,-999.0,-66.117,-135.3248,964.1,-1.16,-999.0,yes,yes,no,300234011342110,UPTEMPO,PSC-UPTEMPO,Palmer,South
2013-05-09T07:00:28Z,1368082829,2013,7,0,129.292,-999.0,-66.117,-135.3248,962.4,-1.16,-999.0,yes,yes,no,300234011342110,UPTEMPO,PSC-UPTEMPO,Palmer,South
2013-05-09T07:59:31Z,1368086371,2013,8,0,129.333,-999.0,-66.117,-135.3248,961.8,-1.18,-999.0,yes,yes,no,300234011342110,UPTEMPO,PSC-UPTEMPO,Palmer,South
2013-05-09T09:00:00Z,1368090000,2013,9,0,129.375,-999.0,-66.117,-135.3248,961.0,-1.18,-999.0,yes,yes,no,300234011342110,UPTEMPO,PSC-UPTEMPO,Palmer,South
2013-05-09T10:00:28Z,1368093629,2013,10,0,129.417,-999.0,-66.1232,-135.3494,960.0,-1.18,-999.0,yes,yes,no,300234011342110,UPTEMPO,PSC-UPTEMPO,Palmer,South
2013-05-09T10:59:31Z,1368097171,2013,11,0,129.458,-999.0,-66.1232,-135.3494,959.1,-1.16,-999.0,yes,yes,no,300234011342110,UPTEMPO,PSC-UPTEMPO,Palmer,South
2013-05-09T12:00:00Z,1368100800,2013,12,0,129.5,-999.0,-66.1266,-135.3606,958.5,-1.2,-999.0,yes,yes,no,300234011342110,UPTEMPO,PSC-UPTEMPO,Palmer,South
2013-05-09T13:00:28Z,1368104429,2013,13,0,129.542,-999.0,-66.1278,-135.3644,958.1,-1.18,-999.0,yes,yes,no,300234011342110,UPTEMPO,PSC-UPTEMPO,Palmer,South
2013-05-09T13:59:31Z,1368107971,2013,14,0,129.583,-999.0,-66.1278,-135.3644,957.2,-1.18,-999.0,yes,yes,no,300234011342110,UPTEMPO,PSC-UPTEMPO,Palmer,South
2013-05-09T15:00:00Z,1368111600,2013,15,0,129.625,-999.0,-66.131,-135.3774,956.8,-1.2,-999.0,yes,yes,no,300234011342110,UPTEMPO,PSC-UPTEMPO,Palmer,South
2013-05-09T16:00:28Z,1368115229,2013,16,0,129.667,-999.0,-66.131,-135.3774,955.6,-1.18,-999.0,yes,yes,no,300234011342110,UPTEMPO,PSC-UPTEMPO,Palmer,South
2013-05-09T16:59:31Z,1368118771,2013,17,0,129.708,-999.0,-66.131,-135.3774,955.9,-1.2,-999.0,yes,yes,no,300234011342110,UPTEMPO,PSC-UPTEMPO,Palmer,South
2013-05-09T18:00:00Z,1368122400,2013,18,0,129.75,-999.0,-66.131,-135.3774,955.8,-1.18,-999.0,yes,yes,no,300234011342110,UPTEMPO,PSC-UPTEMPO,Palmer,South
2013-05-09T19:00:28Z,1368126029,2013,19,0,129.792,-999.0,-66.1314,-135.3814,955.7,-1.2,-999.0,yes,yes,no,300234011342110,UPTEMPO,PSC-UPTEMPO,Palmer,South
2013-05-09T19:59:31Z,1368129571,2013,20,0,129.833,-999.0,-66.1316,-135.3866,955.2,-1.18,-999.0,yes,yes,no,300234011342110,UPTEMPO,PSC-UPTEMPO,Palmer,South
2013-05-09T21:00:00Z,1368133200,2013,21,0,129.875,-999.0,-66.1316,-135.3866,954.6,-1.18,-999.0,yes,yes,no,300234011342110,UPTEMPO,PSC-UPTEMPO,Palmer,South
2013-05-09T22:00:28Z,1368136829,2013,22,0,129.917,-999.0,-66.1274,-135.3942,953.8,-1.18,-999.0,yes,yes,no,300234011342110,UPTEMPO,PSC-UPTEMPO,Palmer,South
2013-05-09T22:59:31Z,1368140371,2013,23,0,129.958,-999.0,-66.1274,-135.3942,955.0,-1.16,-999.0,yes,yes,no,300234011342110,UPTEMPO,PSC-UPTEMPO,Palmer,South
2013-05-10T00:00:00Z,1368144000,2013,0,0,130.0,-999.0,-66.1284,-135.396,955.8,-1.18,-999.0,yes,yes,no,300234011342110,UPTEMPO,PSC-UPTEMPO,Palmer,South
2013-05-10T01:00:28Z,1368147629,2013,1,0,130.042,-999.0,-66.1284,-135.396,955.6,-1.2,-999.0,yes,yes,no,300234011342110,UPTEMPO,PSC-UPTEMPO,Palmer,South
2013-05-10T01:59:31Z,1368151171,2013,2,0,130.083,-999.0,-66.1246,-135.4026,956.1,-1.18,-999.0,yes,yes,no,300234011342110,UPTEMPO,PSC-UPTEMPO,Palmer,South
2013-05-10T03:00:00Z,1368154800,2013,3,0,130.125,-999.0,-66.1234,-135.409,956.5,-1.18,-999.0,yes,yes,no,300234011342110,UPTEMPO,PSC-UPTEMPO,Palmer,South
2013-05-10T04:00:28Z,1368158429,2013,4,0,130.167,-999.0,-66.123,-135.4152,956.4,-1.2,-999.0,yes,yes,no,300234011342110,UPTEMPO,PSC-UPTEMPO,Palmer,South
2013-05-10T04:59:31Z,1368161971,2013,5,0,130.208,-999.0,-66.123,-135.4152,956.3,-1.2,-999.0,yes,yes,no,300234011342110,UPTEMPO,PSC-UPTEMPO,Palmer,South
2013-05-10T06:00:00Z,1368165600,2013,6,0,130.25,-999.0,-66.1218,-135.4298,956.2,-1.2,-999.0,yes,yes,no,300234011342110,UPTEMPO,PSC-UPTEMPO,Palmer,South
2013-05-10T07:00:28Z,1368169229,2013,7,0,130.292,-999.0,-66.121,-135.4324,956.4,-1.18,-999.0,yes,yes,no,300234011342110,UPTEMPO,PSC-UPTEMPO,Palmer,South
2013-05-10T07:59:31Z,1368172771,2013,8,0,130.333,-999.0,-66.121,-135.4324,955.8,-1.18,-999.0,yes,yes,no,300234011342110,UPTEMPO,PSC-UPTEMPO,Palmer,South
2013-05-10T09:00:00Z,1368176400,2013,9,0,130.375,-999.0,-66.1166,-135.437,953.4,-1.18,-999.0,yes,yes,no,300234011342110,UPTEMPO,PSC-UPTEMPO,Palmer,South
2013-05-10T10:00:28Z,1368180029,2013,10,0,130.417,-999.0,-66.1154,-135.4388,954.7,-1.16,-999.0,yes,yes,no,300234011342110,UPTEMPO,PSC-UPTEMPO,Palmer,South
2013-05-10T10:59:31Z,1368183571,2013,11,0,130.458,-999.0,-66.1154,-135.4388,955.9,-1.16,-999.0,yes,yes,no,300234011342110,UPTEMPO,PSC-UPTEMPO,Palmer,South
2013-05-10T12:00:00Z,1368187200,2013,12,0,130.5,-999.0,-66.1154,-135.4388,958.2,-1.18,-999.0,yes,yes,no,300234011342110,UPTEMPO,PSC-UPTEMPO,Palmer,South
2013-05-10T13:00:28Z,1368190829,2013,13,0,130.542,-999.0,-66.1154,-135.4388,959.4,-1.16,-999.0,yes,yes,no,300234011342110,UPTEMPO,PSC-UPTEMPO,Palmer,South
2013-05-10T13:59:31Z,1368194371,2013,14,0,130.583,-999.0,-66.1154,-135.4388,960.7,-1.18,-999.0,yes,yes,no,300234011342110,UPTEMPO,PSC-UPTEMPO,Palmer,South
2013-05-10T15:00:00Z,1368198000,2013,15,0,130.625,-999.0,-66.111,-135.4516,961.9,-1.18,-999.0,yes,yes,no,300234011342110,UPTEMPO,PSC-UPTEMPO,Palmer,South
2013-05-10T16:00:28Z,1368201629,2013,16,0,130.667,-999.0,-66.109,-135.456,963.5,-1.2,-999.0,yes,yes,no,300234011342110,UPTEMPO,PSC-UPTEMPO,Palmer,South
2013-05-10T16:59:31Z,1368205171,2013,17,0,130.708,-999.0,-66.1068,-135.4628,965.2,-1.2,-999.0,yes,yes,no,300234011342110,UPTEMPO,PSC-UPTEMPO,Palmer,South
2013-05-10T18:00:00Z,1368208800,2013,18,0,130.75,-999.0,-66.1068,-135.4628,966.9,-1.18,-999.0,yes,yes,no,300234011342110,UPTEMPO,PSC-UPTEMPO,Palmer,South
2013-05-10T19:00:28Z,1368212429,2013,19,0,130.792,-999.0,-66.1068,-135.4628,968.2,-1.18,-999.0,yes,yes,no,300234011342110,UPTEMPO,PSC-UPTEMPO,Palmer,South
2013-05-10T19:59:31Z,1368215971,2013,20,0,130.833,-999.0,-66.1044,-135.4864,970.5,-1.18,-999.0,yes,yes,no,300234011342110,UPTEMPO,PSC-UPTEMPO,Palmer,South
2013-05-10T21:00:00Z,1368219600,2013,21,0,130.875,-999.0,-66.1044,-135.4864,971.9,-1.18,-999.0,yes,yes,no,300234011342110,UPTEMPO,PSC-UPTEMPO,Palmer,South
2013-05-10T22:00:28Z,1368223229,2013,22,0,130.917,-999.0,-66.1044,-135.4864,973.4,-1.2,-999.0,yes,yes,no,300234011342110,UPTEMPO,PSC-UPTEMPO,Palmer,South
2013-05-10T22:59:31Z,1368226771,2013,23,0,130.958,-999.0,-66.1044,-135.4864,975.4,-1.18,-999.0,yes,yes,no,300234011342110,UPTEMPO,PSC-UPTEMPO,Palmer,South
2013-05-11T00:00:00Z,1368230400,2013,0,0,131.0,-999.0,-66.1052,-135.5082,977.3,-1.18,-999.0,yes,yes,no,300234011342110,UPTEMPO,PSC-UPTEMPO,Palmer,South
2013-05-11T01:00:28Z,1368234029,2013,1,0,131.042,-999.0,-66.104,-135.5128,978.7,-1.18,-999.0,yes,yes,no,300234011342110,UPTEMPO,PSC-UPTEMPO,Palmer,South
2013-05-11T01:59:31Z,1368237571,2013,2,0,131.083,-999.0,-66.1032,-135.514,979.8,-1.2,-999.0,yes,yes,no,300234011342110,UPTEMPO,PSC-UPTEMPO,Palmer,South
2013-05-11T03:00:00Z,1368241200,2013,3,0,131.125,-999.0,-66.102,-135.5164,981.4,-1.2,-999.0,yes,yes,no,300234011342110,UPTEMPO,PSC-UPTEMPO,Palmer,South
2013-05-11T04:00:28Z,1368244829,2013,4,0,131.167,-999.0,-66.1006,-135.52,982.7,-1.18,-999.0,yes,yes,no,300234011342110,UPTEMPO,PSC-UPTEMPO,Palmer,South
2013-05-11T04:59:31Z,1368248371,2013,5,0,131.208,-999.0,-66.0968,-135.5264,984.2,-1.2,-999.0,yes,yes,no,300234011342110,UPTEMPO,PSC-UPTEMPO,Palmer,South
2013-05-11T06:00:00Z,1368252000,2013,6,0,131.25,-999.0,-66.0978,-135.5304,985.2,-1.2,-999.0,yes,yes,no,300234011342110,UPTEMPO,PSC-UPTEMPO,Palmer,South
2013-05-11T07:00:28Z,1368255629,2013,7,0,131.292,-999.0,-66.0966,-135.5368,986.3,-1.2,-999.0,yes,yes,no,300234011342110,UPTEMPO,PSC-UPTEMPO,Palmer,South
2013-05-11T07:59:31Z,1368259171,2013,8,0,131.333,-999.0,-66.0968,-135.5432,986.9,-1.18,-999.0,yes,yes,no,300234011342110,UPTEMPO,PSC-UPTEMPO,Palmer,South
2013-05-11T09:00:00Z,1368262800,2013,9,0,131.375,-999.0,-66.098,-135.5476,988.4,-1.2,-999.0,yes,yes,no,300234011342110,UPTEMPO,PSC-UPTEMPO,Palmer,South
2013-05-11T10:00:28Z,1368266429,2013,10,0,131.417,-999.0,-66.0992,-135.5504,989.1,-1.2,-999.0,yes,yes,no,300234011342110,UPTEMPO,PSC-UPTEMPO,Palmer,South
2013-05-11T10:59:31Z,1368269971,2013,11,0,131.458,-999.0,-66.1004,-135.5516,988.7,-1.2,-999.0,yes,yes,no,300234011342110,UPTEMPO,PSC-UPTEMPO,Palmer,South
2013-05-11T12:00:00Z,1368273600,2013,12,0,131.5,-999.0,-66.1008,-135.5534,990.8,-1.2,-999.0,yes,yes,no,300234011342110,UPTEMPO,PSC-UPTEMPO,Palmer,South
2013-05-11T13:00:28Z,1368277229,2013,13,0,131.542,-999.0,-66.101,-135.5542,991.2,-1.2,-999.0,yes,yes,no,300234011342110,UPTEMPO,PSC-UPTEMPO,Palmer,South
2013-05-11T13:59:31Z,1368280771,2013,14,0,131.583,-999.0,-66.1002,-135.5544,991.2,-1.2,-999.0,yes,yes,no,300234011342110,UPTEMPO,PSC-UPTEMPO,Palmer,South
2013-05-11T15:00:00Z,1368284400,2013,15,0,131.625,-999.0,-66.1002,-135.5596,991.7,-1.2,-999.0,yes,yes,no,300234011342110,UPTEMPO,PSC-UPTEMPO,Palmer,South
2013-05-11T16:00:28Z,1368288029,2013,16,0,131.667,-999.0,-66.0998,-135.5632,992.3,-1.2,-999.0,yes,yes,no,300234011342110,UPTEMPO,PSC-UPTEMPO,Palmer,South
2013-05-11T16:59:31Z,1368291571,2013,17,0,131.708,-999.0,-66.0998,-135.5706,992.3,-1.18,-999.0,yes,yes,no,300234011342110,UPTEMPO,PSC-UPTEMPO,Palmer,South
2013-05-11T18:00:00Z,1368295200,2013,18,0,131.75,-999.0,-66.1004,-135.5742,992.3,-1.2,-999.0,yes,yes,no,300234011342110,UPTEMPO,PSC-UPTEMPO,Palmer,South
2013-05-11T19:00:28Z,1368298829,2013,19,0,131.792,-999.0,-66.1014,-135.5806,992.6,-1.2,-999.0,yes,yes,no,300234011342110,UPTEMPO,PSC-UPTEMPO,Palmer,South
2013-05-11T19:59:31Z,1368302371,2013,20,0,131.833,-999.0,-66.1028,-135.5876,992.6,-1.2,-999.0,yes,yes,no,300234011342110,UPTEMPO,PSC-UPTEMPO,Palmer,South
2013-05-11T21:00:00Z,1368306000,2013,21,0,131.875,-999.0,-66.105,-135.596,992.3,-1.2,-999.0,yes,yes,no,300234011342110,UPTEMPO,PSC-UPTEMPO,Palmer,South
2013-05-11T22:00:28Z,1368309629,2013,22,0,131.917,-999.0,-66.095,-135.5806,992.2,-1.2,-999.0,yes,yes,no,300234011342110,UPTEMPO,PSC-UPTEMPO,Palmer,South
2013-05-11T22:59:31Z,1368313171,2013,23,0,131.958,-999.0,-66.1072,-135.6044,991.5,-1.2,-999.0,yes,yes,no,300234011342110,UPTEMPO,PSC-UPTEMPO,Palmer,South
2013-05-12T00:00:00Z,1368316800,2013,0,0,132.0,-999.0,-66.1144,-135.6158,990.8,-1.2,-999.0,yes,yes,no,300234011342110,UPTEMPO,PSC-UPTEMPO,Palmer,South
2013-05-12T01:00:28Z,1368320429,2013,1,0,132.042,-999.0,-66.1188,-135.6194,989.8,-1.2,-999.0,yes,yes,no,300234011342110,UPTEMPO,PSC-UPTEMPO,Palmer,South
2013-05-12T01:59:31Z,1368323971,2013,2,0,132.083,-999.0,-66.1214,-135.6208,989.3,-1.2,-999.0,yes,yes,no,300234011342110,UPTEMPO,PSC-UPTEMPO,Palmer,South
2013-05-12T03:00:00Z,1368327600,2013,3,0,132.125,-999.0,-66.1238,-135.6232,988.3,-1.2,-999.0,yes,yes,no,300234011342110,UPTEMPO,PSC-UPTEMPO,Palmer,South
2013-05-12T04:00:28Z,1368331229,2013,4,0,132.167,-999.0,-66.1238,-135.6232,987.1,-1.2,-999.0,yes,yes,no,300234011342110,UPTEMPO,PSC-UPTEMPO,Palmer,South
2013-05-12T04:59:31Z,1368334771,2013,5,0,132.208,-999.0,-66.1238,-135.6232,986.5,-1.2,-999.0,yes,yes,no,300234011342110,UPTEMPO,PSC-UPTEMPO,Palmer,South
2013-05-12T06:00:00Z,1368338400,2013,6,0,132.25,-999.0,-66.1312,-135.6374,985.2,-1.2,-999.0,yes,yes,no,300234011342110,UPTEMPO,PSC-UPTEMPO,Palmer,South
2013-05-12T07:00:28Z,1368342029,2013,7,0,132.292,-999.0,-66.1336,-135.6416,984.5,-1.2,-999.0,yes,yes,no,300234011342110,UPTEMPO,PSC-UPTEMPO,Palmer,South
2013-05-12T07:59:31Z,1368345571,2013,8,0,132.333,-999.0,-66.137,-135.6512,983.3,-1.2,-999.0,yes,yes,no,300234011342110,UPTEMPO,PSC-UPTEMPO,Palmer,South
2013-05-12T09:00:00Z,1368349200,2013,9,0,132.375,-999.0,-66.137,-135.6512,982.4,-1.2,-999.0,yes,yes,no,300234011342110,UPTEMPO,PSC-UPTEMPO,Palmer,South
2013-05-12T10:00:28Z,1368352829,2013,10,0,132.417,-999.0,-66.137,-135.6512,980.9,-1.2,-999.0,yes,yes,no,300234011342110,UPTEMPO,PSC-UPTEMPO,Palmer,South
2013-05-12T10:59:31Z,1368356371,2013,11,0,132.458,-999.0,-66.137,-135.6512,979.8,-1.18,-999.0,yes,yes,no,300234011342110,UPTEMPO,PSC-UPTEMPO,Palmer,South
2013-05-12T12:00:00Z,1368360000,2013,12,0,132.5,-999.0,-66.137,-135.6512,978.6,-1.2,-999.0,yes,yes,no,300234011342110,UPTEMPO,PSC-UPTEMPO,Palmer,South
2013-05-12T13:00:28Z,1368363629,2013,13,0,132.542,-999.0,-66.1352,-136.7792,977.5,-1.2,-999.0,yes,yes,no,300234011342110,UPTEMPO,PSC-UPTEMPO,Palmer,South
2013-05-12T13:59:31Z,1368367171,2013,14,0,132.583,-999.0,-66.1352,-136.7792,975.8,-1.2,-999.0,yes,yes,no,300234011342110,UPTEMPO,PSC-UPTEMPO,Palmer,South
2013-05-12T15:00:00Z,1368370800,2013,15,0,132.625,-999.0,-66.1352,-136.7792,974.4,-1.2,-999.0,yes,yes,no,300234011342110,UPTEMPO,PSC-UPTEMPO,Palmer,South
2013-05-12T16:00:28Z,1368374429,2013,16,0,132.667,-999.0,-66.174,-135.6644,973.1,-1.18,-999.0,yes,yes,no,300234011342110,UPTEMPO,PSC-UPTEMPO,Palmer,South
2013-05-12T16:59:31Z,1368377971,2013,17,0,132.708,-999.0,-66.174,-135.6644,972.2,-1.2,-999.0,yes,yes,no,300234011342110,UPTEMPO,PSC-UPTEMPO,Palmer,South
2013-05-12T18:00:00Z,1368381600,2013,18,0,132.75,-999.0,-66.174,-135.6644,971.3,-1.2,-999.0,yes,yes,no,300234011342110,UPTEMPO,PSC-UPTEMPO,Palmer,South
2013-05-12T19:00:28Z,1368385229,2013,19,0,132.792,-999.0,-66.174,-135.6644,970.5,-1.2,-999.0,yes,yes,no,300234011342110,UPTEMPO,PSC-UPTEMPO,Palmer,South
2013-05-12T19:59:31Z,1368388771,2013,20,0,132.833,-999.0,-66.174,-135.6644,969.3,-1.2,-999.0,yes,yes,no,300234011342110,UPTEMPO,PSC-UPTEMPO,Palmer,South
2013-05-12T21:00:00Z,1368392400,2013,21,0,132.875,-999.0,-66.174,-135.6644,968.5,-1.18,-999.0,yes,yes,no,300234011342110,UPTEMPO,PSC-UPTEMPO,Palmer,South
2013-05-12T22:00:28Z,1368396029,2013,22,0,132.917,-999.0,-66.2006,-135.6792,967.8,-1.2,-999.0,yes,yes,no,300234011342110,UPTEMPO,PSC-UPTEMPO,Palmer,South
2013-05-12T22:59:31Z,1368399571,2013,23,0,132.958,-999.0,-66.2082,-135.6834,967.2,-1.2,-999.0,yes,yes,no,300234011342110,UPTEMPO,PSC-UPTEMPO,Palmer,South
2013-05-13T00:00:00Z,1368403200,2013,0,0,133.0,-999.0,-66.2122,-135.6772,965.4,-1.2,-999.0,yes,yes,no,300234011342110,UPTEMPO,PSC-UPTEMPO,Palmer,South
2013-05-13T01:00:28Z,1368406829,2013,1,0,133.042,-999.0,-66.215,-135.6666,966.4,-1.2,-999.0,yes,yes,no,300234011342110,UPTEMPO,PSC-UPTEMPO,Palmer,South
2013-05-13T01:59:31Z,1368410371,2013,2,0,133.083,-999.0,-66.2164,-135.664,965.7,-1.2,-999.0,yes,yes,no,300234011342110,UPTEMPO,PSC-UPTEMPO,Palmer,South
2013-05-13T03:00:00Z,1368414000,2013,3,0,133.125,-999.0,-66.2176,-135.6572,965.8,-1.18,-999.0,yes,yes,no,300234011342110,UPTEMPO,PSC-UPTEMPO,Palmer,South
2013-05-13T04:00:28Z,1368417629,2013,4,0,133.167,-999.0,-66.2186,-135.6514,965.6,-1.2,-999.0,yes,yes,no,300234011342110,UPTEMPO,PSC-UPTEMPO,Palmer,South
2013-05-13T04:59:31Z,1368421171,2013,5,0,133.208,-999.0,-66.2186,-135.6514,965.7,-1.2,-999.0,yes,yes,no,300234011342110,UPTEMPO,PSC-UPTEMPO,Palmer,South
2013-05-13T06:00:00Z,1368424800,2013,6,0,133.25,-999.0,-66.2186,-135.6514,964.7,-1.2,-999.0,yes,yes,no,300234011342110,UPTEMPO,PSC-UPTEMPO,Palmer,South
2013-05-13T07:00:28Z,1368428429,2013,7,0,133.292,-999.0,-66.2186,-135.6514,964.1,-1.18,-999.0,yes,yes,no,300234011342110,UPTEMPO,PSC-UPTEMPO,Palmer,South
2013-05-13T07:59:31Z,1368431971,2013,8,0,133.333,-999.0,-66.2186,-135.6514,963.6,-1.18,-999.0,yes,yes,no,300234011342110,UPTEMPO,PSC-UPTEMPO,Palmer,South
2013-05-13T09:00:00Z,1368435600,2013,9,0,133.375,-999.0,-66.2186,-135.6514,963.0,-1.18,-999.0,yes,yes,no,300234011342110,UPTEMPO,PSC-UPTEMPO,Palmer,South
2013-05-13T10:00:28Z,1368439229,2013,10,0,133.417,-999.0,-66.224,-135.6638,961.9,-1.16,-999.0,yes,yes,no,300234011342110,UPTEMPO,PSC-UPTEMPO,Palmer,South
2013-05-13T10:59:31Z,1368442771,2013,11,0,133.458,-999.0,-66.2276,-135.665,962.4,-1.16,-999.0,yes,yes,no,300234011342110,UPTEMPO,PSC-UPTEMPO,Palmer,South
2013-05-13T12:00:00Z,1368446400,2013,12,0,133.5,-999.0,-66.232,-135.6628,962.3,-1.12,-999.0,yes,yes,no,300234011342110,UPTEMPO,PSC-UPTEMPO,Palmer,South
2013-05-13T13:00:28Z,1368450029,2013,13,0,133.542,-999.0,-66.2374,-135.657,961.3,-1.12,-999.0,yes,yes,no,300234011342110,UPTEMPO,PSC-UPTEMPO,Palmer,South
2013-05-13T13:59:31Z,1368453571,2013,14,0,133.583,-999.0,-66.239,-135.6516,961.2,-1.12,-999.0,yes,yes,no,300234011342110,UPTEMPO,PSC-UPTEMPO,Palmer,South
2013-05-13T15:00:00Z,1368457200,2013,15,0,133.625,-999.0,-66.2384,-135.6492,960.3,-1.16,-999.0,yes,yes,no,300234011342110,UPTEMPO,PSC-UPTEMPO,Palmer,South
2013-05-13T16:00:28Z,1368460829,2013,16,0,133.667,-999.0,-66.2384,-135.6492,959.0,-1.16,-999.0,yes,yes,no,300234011342110,UPTEMPO,PSC-UPTEMPO,Palmer,South
2013-05-13T16:59:31Z,1368464371,2013,17,0,133.708,-999.0,-66.2384,-135.6492,957.9,-1.16,-999.0,yes,yes,no,300234011342110,UPTEMPO,PSC-UPTEMPO,Palmer,South
2013-05-13T18:00:00Z,1368468000,2013,18,0,133.75,-999.0,-66.239,-135.6502,956.8,-1.12,-999.0,yes,yes,no,300234011342110,UPTEMPO,PSC-UPTEMPO,Palmer,South
2013-05-13T19:00:28Z,1368471629,2013,19,0,133.792,-999.0,-66.2388,-135.6568,955.5,-1.16,-999.0,yes,yes,no,300234011342110,UPTEMPO,PSC-UPTEMPO,Palmer,South
2013-05-13T19:59:31Z,1368475171,2013,20,0,133.833,-999.0,-66.2388,-135.6568,953.2,-1.16,-999.0,yes,yes,no,300234011342110,UPTEMPO,PSC-UPTEMPO,Palmer,South
2013-05-13T21:00:00Z,1368478800,2013,21,0,133.875,-999.0,-66.2388,-135.6568,951.3,-1.16,-999.0,yes,yes,no,300234011342110,UPTEMPO,PSC-UPTEMPO,Palmer,South
2013-05-13T22:00:28Z,1368482429,2013,22,0,133.917,-999.0,-66.2388,-135.6568,948.9,-1.16,-999.0,yes,yes,no,300234011342110,UPTEMPO,PSC-UPTEMPO,Palmer,South
2013-05-13T22:59:31Z,1368485971,2013,23,0,133.958,-999.0,-66.2388,-135.6568,947.3,-1.16,-999.0,yes,yes,no,300234011342110,UPTEMPO,PSC-UPTEMPO,Palmer,South
2013-05-14T00:00:00Z,1368489600,2013,0,0,134.0,-999.0,-66.2606,-135.6984,946.8,-1.16,-999.0,yes,yes,no,300234011342110,UPTEMPO,PSC-UPTEMPO,Palmer,South
2013-05-14T01:00:28Z,1368493229,2013,1,0,134.042,-999.0,-66.2606,-135.6984,946.1,-1.16,-999.0,yes,yes,no,300234011342110,UPTEMPO,PSC-UPTEMPO,Palmer,South
2013-05-14T01:59:31Z,1368496771,2013,2,0,134.083,-999.0,-66.2688,-135.689,945.5,-1.16,-999.0,yes,yes,no,300234011342110,UPTEMPO,PSC-UPTEMPO,Palmer,South
2013-05-14T03:00:00Z,1368500400,2013,3,0,134.125,-999.0,-66.2734,-135.68,945.0,-1.18,-999.0,yes,yes,no,300234011342110,UPTEMPO,PSC-UPTEMPO,Palmer,South
2013-05-14T04:00:28Z,1368504029,2013,4,0,134.167,-999.0,-66.2752,-135.6696,945.0,-1.16,-999.0,yes,yes,no,300234011342110,UPTEMPO,PSC-UPTEMPO,Palmer,South
2013-05-14T04:59:31Z,1368507571,2013,5,0,134.208,-999.0,-66.2752,-135.6696,944.9,-1.16,-999.0,yes,yes,no,300234011342110,UPTEMPO,PSC-UPTEMPO,Palmer,South
2013-05-14T06:00:00Z,1368511200,2013,6,0,134.25,-999.0,-66.2752,-135.6696,946.0,-1.16,-999.0,yes,yes,no,300234011342110,UPTEMPO,PSC-UPTEMPO,Palmer,South
2013-05-14T07:00:28Z,1368514829,2013,7,0,134.292,-999.0,-66.2752,-135.6696,946.1,-1.16,-999.0,yes,yes,no,300234011342110,UPTEMPO,PSC-UPTEMPO,Palmer,South
2013-05-14T07:59:31Z,1368518371,2013,8,0,134.333,-999.0,-66.2752,-135.6696,947.0,-1.16,-999.0,yes,yes,no,300234011342110,UPTEMPO,PSC-UPTEMPO,Palmer,South
2013-05-14T09:00:00Z,1368522000,2013,9,0,134.375,-999.0,-66.2752,-135.6696,946.3,-1.18,-999.0,yes,yes,no,300234011342110,UPTEMPO,PSC-UPTEMPO,Palmer,South
2013-05-14T10:00:28Z,1368525629,2013,10,0,134.417,-999.0,-66.2718,-135.6438,947.4,-1.16,-999.0,yes,yes,no,300234011342110,UPTEMPO,PSC-UPTEMPO,Palmer,South
2013-05-14T10:59:31Z,1368529171,2013,11,0,134.458,-999.0,-66.2786,-135.6456,947.3,-1.16,-999.0,yes,yes,no,300234011342110,UPTEMPO,PSC-UPTEMPO,Palmer,South
2013-05-14T12:00:00Z,1368532800,2013,12,0,134.5,-999.0,-66.2786,-135.6456,948.3,-1.16,-999.0,yes,yes,no,300234011342110,UPTEMPO,PSC-UPTEMPO,Palmer,South
2013-05-14T13:00:28Z,1368536429,2013,13,0,134.542,-999.0,-66.2786,-135.6456,949.9,-1.18,-999.0,yes,yes,no,300234011342110,UPTEMPO,PSC-UPTEMPO,Palmer,South
2013-05-14T13:59:31Z,1368539971,2013,14,0,134.583,-999.0,-66.2786,-135.6456,950.9,-1.16,-999.0,yes,yes,no,300234011342110,UPTEMPO,PSC-UPTEMPO,Palmer,South
2013-05-14T15:00:00Z,1368543600,2013,15,0,134.625,-999.0,-66.2898,-135.5972,952.4,-1.16,-999.0,yes,yes,no,300234011342110,UPTEMPO,PSC-UPTEMPO,Palmer,South
2013-05-14T16:00:28Z,1368547229,2013,16,0,134.667,-999.0,-66.2892,-135.582,953.3,-1.16,-999.0,yes,yes,no,300234011342110,UPTEMPO,PSC-UPTEMPO,Palmer,South
2013-05-14T16:59:31Z,1368550771,2013,17,0,134.708,-999.0,-66.2874,-135.5672,954.3,-1.18,-999.0,yes,yes,no,300234011342110,UPTEMPO,PSC-UPTEMPO,Palmer,South
2013-05-14T18:00:00Z,1368554400,2013,18,0,134.75,-999.0,-66.2818,-135.555,954.9,-1.16,-999.0,yes,yes,no,300234011342110,UPTEMPO,PSC-UPTEMPO,Palmer,South
2013-05-14T19:00:28Z,1368558029,2013,19,0,134.792,-999.0,-66.2818,-135.555,955.6,-1.18,-999.0,yes,yes,no,300234011342110,UPTEMPO,PSC-UPTEMPO,Palmer,South
2013-05-14T19:59:31Z,1368561571,2013,20,0,134.833,-999.0,-66.275,-135.5534,955.8,-1.16,-999.0,yes,yes,no,300234011342110,UPTEMPO,PSC-UPTEMPO,Palmer,South
2013-05-14T21:00:00Z,1368565200,2013,21,0,134.875,-999.0,-66.27,-135.5564,956.0,-1.18,-999.0,yes,yes,no,300234011342110,UPTEMPO,PSC-UPTEMPO,Palmer,South
2013-05-14T22:00:28Z,1368568829,2013,22,0,134.917,-999.0,-66.27,-135.5564,956.4,-1.18,-999.0,yes,yes,no,300234011342110,UPTEMPO,PSC-UPTEMPO,Palmer,South
2013-05-14T22:59:31Z,1368572371,2013,23,0,134.958,-999.0,-66.2724,-135.5748,956.9,-1.18,-999.0,yes,yes,no,300234011342110,UPTEMPO,PSC-UPTEMPO,Palmer,South
2013-05-15T00:00:00Z,1368576000,2013,0,0,135.0,-999.0,-66.2742,-135.5788,957.2,-1.18,-999.0,yes,yes,no,300234011342110,UPTEMPO,PSC-UPTEMPO,Palmer,South
2013-05-15T01:00:28Z,1368579629,2013,1,0,135.042,-999.0,-66.2742,-135.5788,958.2,-1.2,-999.0,yes,yes,no,300234011342110,UPTEMPO,PSC-UPTEMPO,Palmer,South
2013-05-15T01:59:31Z,1368583171,2013,2,0,135.083,-999.0,-66.281,-135.5744,959.3,-1.2,-999.0,yes,yes,no,300234011342110,UPTEMPO,PSC-UPTEMPO,Palmer,South
2013-05-15T03:00:00Z,1368586800,2013,3,0,135.125,-999.0,-66.283,-135.5626,960.2,-1.2,-999.0,yes,yes,no,300234011342110,UPTEMPO,PSC-UPTEMPO,Palmer,South
2013-05-15T04:00:28Z,1368590429,2013,4,0,135.167,-999.0,-66.2832,-135.5484,961.7,-1.2,-999.0,yes,yes,no,300234011342110,UPTEMPO,PSC-UPTEMPO,Palmer,South
2013-05-15T04:59:31Z,1368593971,2013,5,0,135.208,-999.0,-66.2818,-135.5318,962.5,-1.2,-999.0,yes,yes,no,300234011342110,UPTEMPO,PSC-UPTEMPO,Palmer,South
2013-05-15T06:00:00Z,1368597600,2013,6,0,135.25,-999.0,-66.2782,-135.5172,964.1,-1.2,-999.0,yes,yes,no,300234011342110,UPTEMPO,PSC-UPTEMPO,Palmer,South
2013-05-15T07:00:28Z,1368601229,2013,7,0,135.292,-999.0,-66.2696,-135.5004,964.7,-1.2,-999.0,yes,yes,no,300234011342110,UPTEMPO,PSC-UPTEMPO,Palmer,South
2013-05-15T07:59:31Z,1368604771,2013,8,0,135.333,-999.0,-66.2662,-135.4954,966.0,-1.2,-999.0,yes,yes,no,300234011342110,UPTEMPO,PSC-UPTEMPO,Palmer,South
2013-05-15T09:00:00Z,1368608400,2013,9,0,135.375,-999.0,-66.2602,-135.4938,967.1,-1.2,-999.0,yes,yes,no,300234011342110,UPTEMPO,PSC-UPTEMPO,Palmer,South
2013-05-15T10:00:28Z,1368612029,2013,10,0,135.417,-999.0,-66.2552,-135.4974,967.8,-1.2,-999.0,yes,yes,no,300234011342110,UPTEMPO,PSC-UPTEMPO,Palmer,South